Tracking 19176 objects as of 27-May-2018
HD Live streaming from Space Station
objects crossing your sky now

SYMPHONIE 1

Track SYMPHONIE 1 now!
SYMPHONIE 1 is classified as:


NORAD ID: 7578
Int'l Code: 1974-101A
Perigee: 35,879.7 km
Apogee: 35,893.0 km
Inclination: 11.5 °
Period: 1,440.8 minutes
Semi major axis: 42257 km
RCS: 1.2872 m2 (large)
Launch date: December 19, 1974
Source: France/Germany (FGER)
Launch site: AIR FORCE EASTERN TEST RANGE (AFETR)
aabbcc
Your satellite tracking list
Your tracking list is empty




NASA's NSSDC Master Catalog

Two Line Element Set (TLE):
1  7578U 74101A   18146.51849709 +.00000049 +00000-0 +00000-0 0  9996
2  7578 011.4672 314.0255 0001579 357.0013 179.4074 00.99942395087772
Source of the keplerian elements: AFSPC